QPF
0.00 0.00 0.00 0.00 0.00 0.00 0.00 0.00 0.00 0.00 0.00 0.00 0.00 0.00 0.00 0.00 0.00 0.00 0.00 0.00 0.00 0.00 0.00 0.00 0.00 0.00 0.00 0.00 0.00 0.00 0.00 0.00 0.00 0.00 0.01 0.01 0.01 0.01 0.01 0.00 0.00 0.00 0.00 0.00
0.00 0.00 0.00 0.00 0.00 0.00 0.00 0.00 0.00 0.00 0.00 0.00 0.00 0.00 0.00 0.00 0.00 0.00 0.00 0.00 0.00 0.00 0.00 0.00 0.00 0.00 0.00 0.00 0.00 0.00 0.00 0.00 0.00 0.00 0.00 0.00 0.00 0.00 0.00 0.00 0.00 0.00 0.00 0.00
0.00 0.00 0.00 0.00 0.00 0.00 0.00 0.00 0.00 0.00 0.00 0.00 0.00 0.00 0.00 0.00 0.00 0.00 0.00 0.00 0.00 0.00 0.00 0.00 0.00 0.00 0.00 0.00 0.00 0.00 0.00 0.00 0.00 0.00 0.00 0.00 0.01 0.01 0.01 0.01 0.00 0.00 0.00 0.00
0.00 0.00 0.00 0.00 0.00 0.00 0.00 0.00 0.00 0.00 0.00 0.00 0.00 0.00 0.00 0.00 0.00 0.00 0.00 0.00 0.00 0.00 0.00 0.00 0.00 0.00 0.00 0.00 0.00 0.00 0.00 0.00 0.00 0.00 0.00 0.00 0.00 0.00 0.00 0.00 0.00 0.00 0.00 0.00
0.00 0.00 0.00 0.00 0.00 0.00 0.00 0.00 0.00 0.00 0.00 0.00 0.00 0.00 0.00 0.00 0.00 0.00 0.00 0.00 0.00 0.00 0.00 0.00 0.00 0.00 0.00 0.00 0.00 0.00 0.00 0.00 0.00 0.00 0.00 0.00 0.00 0.00 0.00 0.00 0.00 0.00 0.00 0.00
0.00 0.00 0.00 0.00 0.00 0.00 0.00 0.00 0.00 0.00 0.00 0.00 0.00 0.00 0.00 0.00 0.00 0.00 0.00 0.00 0.00 0.00 0.00 0.00 0.00 0.00 0.00 0.00 0.00 0.00 0.00 0.00 0.00 0.00 0.00 0.00 0.00 0.00 0.00 0.00 0.00 0.00 0.00 0.00
0.00 0.00 0.00 0.00 0.00 0.00 0.00 0.00 0.01 0.01 0.01 0.00 0.00 0.00 0.00 0.00 0.00 0.00 0.00 0.00 0.00 0.00 0.00 0.00 0.00 0.00 0.00 0.00 0.00 0.00 0.00 0.00 0.00 0.00 0.00 0.00 0.00 0.00 0.00 0.00 0.00 0.00 0.00 0.00
0.00 0.00 0.00 0.00 0.00 0.00 0.00 0.00 0.01 0.01 0.00 0.00 0.00 0.00 0.00 0.00 0.00 0.00 0.00 0.00 0.00 0.00 0.00 0.00 0.00 0.00 0.00 0.00 0.00 0.00 0.00 0.00 0.00 0.00 0.00 0.00 0.00 0.00 0.00 0.00 0.00 0.00 0.00 0.00
0.00 0.00 0.00 0.00 0.00 0.00 0.00 0.00 0.00 0.00 0.01 0.00 0.00 0.00 0.00 0.00 0.00 0.00 0.00 0.00 0.00 0.00 0.00 0.00 0.00 0.00 0.00 0.00 0.00 0.00 0.00 0.00 0.00 0.00 0.00 0.00 0.00 0.00 0.00 0.00 0.00 0.00 0.00 0.00
0.01 0.00 0.00 0.00 0.00 0.00 0.00 0.00 0.01 0.02 0.02 0.01 0.00 0.00 0.00 0.00 0.00 0.00 0.00 0.00 0.00 0.00 0.00 0.00 0.00 0.00 0.00 0.00 0.00 0.00 0.00 0.00 0.00 0.00 0.00 0.00 0.00 0.00 0.00 0.00 0.00 0.00 0.00 0.00
0.01 0.01 0.01 0.00 0.00 0.00 0.00 0.00 0.01 0.02 0.01 0.00 0.00 0.00 0.00 0.00 0.00 0.00 0.00 0.00 0.00 0.00 0.00 0.00 0.00 0.00 0.00 0.00 0.00 0.00 0.00 0.00 0.00 0.00 0.00 0.00 0.00 0.00 0.00 0.00 0.00 0.00 0.00 0.00
0.02 0.03 0.02 0.01 0.00 0.00 0.00 0.00 0.01 0.01 0.01 0.00 0.00 0.00 0.00 0.00 0.00 0.00 0.00 0.00 0.00 0.00 0.00 0.00 0.00 0.00 0.00 0.00 0.00 0.00 0.00 0.00 0.00 0.00 0.00 0.00 0.00 0.00 0.00 0.00 0.00 0.00 0.00 0.00
0.04 0.08 0.07 0.04 0.02 0.01 0.01 0.01 0.01 0.01 0.00 0.00 0.00 0.00 0.00 0.00 0.00 0.00 0.00 0.00 0.00 0.00 0.00 0.00 0.00 0.00 0.00 0.00 0.00 0.00 0.00 0.00 0.00 0.00 0.00 0.00 0.00 0.00 0.00 0.00 0.00 0.00 0.00 0.00
0.04 0.07 0.06 0.04 0.02 0.01 0.01 0.00 0.00 0.01 0.01 0.01 0.00 0.00 0.00 0.00 0.00 0.00 0.00 0.00 0.00 0.00 0.00 0.00 0.00 0.00 0.00 0.00 0.00 0.00 0.00 0.00 0.00 0.00 0.00 0.00 0.00 0.00 0.00 0.00 0.00 0.00 0.00 0.00
0.05 0.06 0.03 0.01 0.00 0.00 0.01 0.01 0.00 0.00 0.00 0.00 0.00 0.00 0.00 0.00 0.00 0.00 0.00 0.00 0.00 0.00 0.00 0.00 0.00 0.00 0.00 0.00 0.00 0.00 0.00 0.00 0.00 0.00 0.00 0.00 0.00 0.00 0.00 0.00 0.00 0.00 0.00 0.00
0.06 0.06 0.03 0.01 0.00 0.00 0.01 0.01 0.01 0.01 0.00 0.00 0.00 0.00 0.00 0.00 0.00 0.00 0.00 0.00 0.00 0.00 0.00 0.00 0.00 0.00 0.00 0.00 0.00 0.00 0.00 0.00 0.00 0.00 0.00 0.00 0.00 0.00 0.00 0.00 0.00 0.00 0.00 0.00
0.07 0.07 0.06 0.02 0.01 0.02 0.02 0.01 0.00 0.00 0.00 0.00 0.00 0.00 0.00 0.00 0.00 0.00 0.00 0.00 0.00 0.00 0.00 0.00 0.00 0.00 0.00 0.00 0.00 0.00 0.00 0.00 0.00 0.00 0.00 0.00 0.00 0.00 0.00 0.00 0.00 0.00 0.00 0.00
0.05 0.06 0.08 0.05 0.04 0.07 0.03 0.00 0.00 0.00 0.00 0.00 0.00 0.00 0.00 0.00 0.00 0.00 0.00 0.00 0.00 0.00 0.00 0.00 0.00 0.00 0.00 0.00 0.00 0.00 0.00 0.00 0.00 0.00 0.00 0.00 0.00 0.00 0.00 0.00 0.00 0.00 0.00 0.00
0.02 0.05 0.10 0.09 0.06 0.04 0.00 0.00 0.00 0.00 0.00 0.00 0.00 0.00 0.00 0.00 0.00 0.00 0.00 0.00 0.00 0.00 0.00 0.00 0.00 0.00 0.00 0.00 0.00 0.00 0.00 0.00 0.00 0.00 0.00 0.00 0.00 0.00 0.00 0.00 0.00 0.00 0.00 0.00
0.02 0.04 0.10 0.11 0.08 0.03 0.00 0.00 0.00 0.00 0.00 0.00 0.00 0.00 0.00 0.00 0.00 0.00 0.00 0.00 0.00 0.00 0.00 0.00 0.00 0.00 0.00 0.00 0.00 0.00 0.00 0.00 0.00 0.00 0.00 0.00 0.00 0.00 0.00 0.00 0.00 0.00 0.00 0.00
0.06 0.09 0.13 0.09 0.06 0.02 0.00 0.00 0.00 0.01 0.00 0.00 0.00 0.00 0.00 0.00 0.00 0.00 0.00 0.00 0.00 0.00 0.00 0.00 0.00 0.00 0.00 0.00 0.00 0.00 0.00 0.00 0.00 0.00 0.00 0.00 0.00 0.00 0.00 0.00 0.00 0.00 0.00 0.00
0.07 0.11 0.11 0.08 0.05 0.02 0.01 0.01 0.01 0.01 0.00 0.00 0.00 0.00 0.00 0.00 0.00 0.00 0.00 0.00 0.00 0.00 0.00 0.00 0.00 0.00 0.00 0.00 0.00 0.00 0.00 0.00 0.00 0.00 0.00 0.00 0.00 0.00 0.00 0.00 0.00 0.00 0.00 0.00
0.05 0.09 0.09 0.06 0.03 0.01 0.01 0.01 0.02 0.01 0.01 0.00 0.00 0.00 0.00 0.00 0.00 0.00 0.00 0.00 0.00 0.00 0.00 0.00 0.00 0.00 0.00 0.00 0.00 0.00 0.00 0.00 0.00 0.00 0.00 0.00 0.00 0.00 0.00 0.00 0.00 0.00 0.00 0.00
0.04 0.04 0.05 0.05 0.02 0.01 0.01 0.01 0.01 0.01 0.00 0.00 0.00 0.00 0.00 0.00 0.00 0.00 0.00 0.00 0.00 0.00 0.00 0.00 0.00 0.00 0.00 0.00 0.00 0.00 0.00 0.00 0.00 0.00 0.00 0.00 0.00 0.00 0.00 0.00 0.00 0.00 0.00 0.00
0.04 0.03 0.03 0.03 0.02 0.01 0.01 0.01 0.01 0.01 0.00 0.00 0.00 0.00 0.00 0.00 0.00 0.00 0.00 0.00 0.00 0.00 0.00 0.00 0.00 0.00 0.00 0.00 0.00 0.00 0.00 0.00 0.00 0.00 0.00 0.00 0.00 0.00 0.00 0.00 0.00 0.00 0.00 0.00
0.02 0.03 0.03 0.02 0.02 0.02 0.01 0.01 0.01 0.01 0.01 0.00 0.00 0.00 0.00 0.00 0.00 0.00 0.00 0.00 0.00 0.00 0.00 0.00 0.00 0.00 0.00 0.00 0.00 0.00 0.00 0.00 0.00 0.00 0.00 0.00 0.00 0.00 0.00 0.00 0.00 0.00 0.00 0.00
MSLP
1008.31 1008.38 1008.38 1008.34 1008.30 1008.31 1008.37 1008.50 1008.67 1008.84 1008.99 1009.05 1009.00 1008.84 1008.55 1008.15 1007.67 1007.15 1006.62 1006.13 1005.69 1005.34 1005.11 1005.01 1005.06 1005.28 1005.66 1006.22 1006.92 1007.75 1008.68 1009.65 1010.62 1011.56 1012.42 1013.21 1013.90 1014.51 1015.07 1015.58 1016.08 1016.59 1017.11 1017.64
1007.87 1007.84 1007.74 1007.63 1007.56 1007.58 1007.71 1007.94 1008.22 1008.50 1008.72 1008.82 1008.78 1008.57 1008.21 1007.72 1007.16 1006.58 1006.00 1005.48 1005.03 1004.68 1004.44 1004.34 1004.38 1004.58 1004.94 1005.48 1006.18 1007.03 1007.99 1009.02 1010.06 1011.07 1012.00 1012.83 1013.56 1014.18 1014.72 1015.22 1015.69 1016.18 1016.69 1017.22
1007.13 1007.05 1006.92 1006.80 1006.78 1006.89 1007.14 1007.50 1007.90 1008.28 1008.56 1008.67 1008.57 1008.28 1007.80 1007.20 1006.53 1005.86 1005.24 1004.69 1004.25 1003.93 1003.72 1003.65 1003.70 1003.90 1004.26 1004.79 1005.48 1006.34 1007.32 1008.38 1009.47 1010.53 1011.51 1012.39 1013.14 1013.78 1014.33 1014.82 1015.29 1015.77 1016.28 1016.82
1006.07 1005.99 1005.89 1005.86 1005.96 1006.24 1006.67 1007.20 1007.75 1008.22 1008.53 1008.60 1008.41 1007.98 1007.34 1006.58 1005.77 1005.00 1004.31 1003.76 1003.34 1003.07 1002.94 1002.92 1003.03 1003.27 1003.65 1004.18 1004.87 1005.72 1006.70 1007.76 1008.86 1009.94 1010.95 1011.85 1012.64 1013.30 1013.86 1014.37 1014.85 1015.35 1015.86 1016.41
1004.74 1004.69 1004.69 1004.81 1005.11 1005.61 1006.26 1007.00 1007.71 1008.27 1008.58 1008.59 1008.27 1007.66 1006.82 1005.86 1004.89 1004.00 1003.26 1002.70 1002.34 1002.15 1002.11 1002.21 1002.41 1002.72 1003.14 1003.69 1004.38 1005.21 1006.16 1007.20 1008.27 1009.33 1010.34 1011.24 1012.04 1012.72 1013.31 1013.85 1014.36 1014.89 1015.44 1016.01
1003.22 1003.22 1003.33 1003.64 1004.18 1004.94 1005.85 1006.81 1007.68 1008.32 1008.62 1008.55 1008.08 1007.27 1006.23 1005.08 1003.95 1002.95 1002.16 1001.61 1001.32 1001.24 1001.33 1001.56 1001.88 1002.29 1002.78 1003.36 1004.05 1004.84 1005.74 1006.72 1007.73 1008.74 1009.70 1010.58 1011.37 1012.07 1012.69 1013.27 1013.83 1014.40 1015.00 1015.62
1001.64 1001.67 1001.90 1002.39 1003.16 1004.17 1005.33 1006.50 1007.50 1008.21 1008.51 1008.36 1007.75 1006.77 1005.55 1004.24 1002.98 1001.90 1001.09 1000.59 1000.38 1000.43 1000.67 1001.05 1001.52 1002.04 1002.60 1003.21 1003.89 1004.64 1005.47 1006.35 1007.27 1008.20 1009.09 1009.92 1010.68 1011.38 1012.03 1012.64 1013.26 1013.90 1014.56 1015.23
1000.16 1000.17 1000.47 1001.10 1002.06 1003.28 1004.63 1005.96 1007.08 1007.84 1008.13 1007.92 1007.21 1006.12 1004.79 1003.37 1002.05 1000.95 1000.17 999.73 999.64 999.82 1000.22 1000.75 1001.35 1001.98 1002.61 1003.24 1003.90 1004.60 1005.33 1006.11 1006.92 1007.73 1008.53 1009.30 1010.02 1010.71 1011.37 1012.02 1012.69 1013.38 1014.11 1014.85
998.93 998.88 999.19 999.88 1000.93 1002.27 1003.73 1005.15 1006.34 1007.12 1007.41 1007.17 1006.43 1005.30 1003.93 1002.51 1001.20 1000.16 999.45 999.12 999.15 999.47 1000.01 1000.67 1001.38 1002.08 1002.76 1003.41 1004.04 1004.66 1005.31 1005.97 1006.66 1007.36 1008.06 1008.75 1009.42 1010.08 1010.75 1011.43 1012.14 1012.88 1013.66 1014.45
998.10 997.94 998.18 998.84 999.89 1001.23 1002.70 1004.12 1005.30 1006.08 1006.36 1006.12 1005.40 1004.31 1003.01 1001.68 1000.48 999.56 998.98 998.79 998.94 999.38 1000.02 1000.77 1001.54 1002.29 1002.99 1003.62 1004.20 1004.76 1005.32 1005.88 1006.46 1007.06 1007.67 1008.29 1008.91 1009.55 1010.21 1010.90 1011.63 1012.40 1013.21 1014.03
997.77 997.46 997.56 998.11 999.05 1000.28 1001.65 1002.97 1004.07 1004.79 1005.05 1004.84 1004.18 1003.21 1002.06 1000.90 999.89 999.15 998.74 998.69 998.96 999.48 1000.18 1000.96 1001.75 1002.49 1003.16 1003.76 1004.30 1004.80 1005.28 1005.77 1006.28 1006.80 1007.35 1007.91 1008.50 1009.11 1009.75 1010.44 1011.17 1011.94 1012.75 1013.59
997.91 997.45 997.40 997.77 998.53 999.56 1000.72 1001.86 1002.80 1003.42 1003.64 1003.44 1002.89 1002.07 1001.12 1000.18 999.40 998.87 998.64 998.72 999.08 999.65 1000.36 1001.12 1001.87 1002.56 1003.18 1003.73 1004.22 1004.67 1005.12 1005.57 1006.04 1006.53 1007.05 1007.59 1008.16 1008.75 1009.38 1010.04 1010.76 1011.51 1012.30 1013.11
998.43 997.86 997.65 997.83 998.35 999.13 1000.03 1000.91 1001.64 1002.11 1002.25 1002.07 1001.60 1000.95 1000.21 999.51 998.96 998.63 998.56 998.76 999.17 999.75 1000.42 1001.11 1001.79 1002.41 1002.96 1003.45 1003.90 1004.34 1004.77 1005.23 1005.71 1006.21 1006.74 1007.29 1007.86 1008.45 1009.07 1009.71 1010.39 1011.10 1011.85 1012.62
999.17 998.53 998.20 998.20 998.48 998.98 999.59 1000.19 1000.67 1000.95 1000.99 1000.79 1000.40 999.88 999.32 998.84 998.50 998.35 998.41 998.68 999.11 999.66 1000.26 1000.86 1001.44 1001.97 1002.46 1002.91 1003.34 1003.78 1004.24 1004.74 1005.27 1005.82 1006.40 1006.99 1007.58 1008.18 1008.79 1009.41 1010.05 1010.72 1011.42 1012.14
999.93 999.27 998.86 998.70 998.77 999.01 999.33 999.65 999.88 999.96 999.88 999.64 999.28 998.86 998.45 998.13 997.95 997.94 998.10 998.40 998.82 999.32 999.84 1000.35 1000.83 1001.28 1001.72 1002.14 1002.58 1003.06 1003.58 1004.14 1004.75 1005.38 1006.02 1006.66 1007.29 1007.91 1008.52 1009.12 1009.73 1010.36 1011.01 1011.68
1000.49 999.85 999.40 999.13 999.03 999.05 999.13 999.19 999.19 999.09 998.88 998.58 998.22 997.86 997.56 997.35 997.28 997.36 997.57 997.90 998.29 998.73 999.18 999.61 1000.03 1000.43 1000.83 1001.26 1001.73 1002.26 1002.85 1003.50 1004.18 1004.89 1005.61 1006.31 1006.98 1007.63 1008.24 1008.84 1009.43 1010.02 1010.63 1011.26
1000.71 1000.09 999.61 999.27 999.05 998.90 998.78 998.65 998.47 998.21 997.89 997.53 997.17 996.84 996.60 996.47 996.48 996.61 996.86 997.19 997.57 997.98 998.38 998.77 999.15 999.54 999.95 1000.40 1000.92 1001.51 1002.17 1002.89 1003.66 1004.44 1005.21 1005.96 1006.66 1007.33 1007.96 1008.55 1009.13 1009.70 1010.29 1010.90
1000.50 999.89 999.38 998.98 998.66 998.39 998.14 997.87 997.56 997.21 996.82 996.43 996.06 995.77 995.57 995.50 995.56 995.74 996.02 996.38 996.77 997.17 997.58 997.97 998.37 998.78 999.22 999.72 1000.29 1000.94 1001.65 1002.43 1003.24 1004.05 1004.86 1005.63 1006.36 1007.04 1007.67 1008.26 1008.84 1009.42 1010.00 1010.60
999.92 999.26 998.69 998.21 997.80 997.45 997.11 996.76 996.39 996.00 995.60 995.21 994.88 994.63 994.49 994.48 994.60 994.84 995.18 995.58 996.01 996.47 996.92 997.36 997.81 998.27 998.77 999.33 999.94 1000.62 1001.37 1002.16 1002.98 1003.80 1004.60 1005.37 1006.09 1006.77 1007.40 1008.01 1008.59 1009.17 1009.76 1010.36
999.10 998.32 997.63 997.05 996.55 996.12 995.72 995.35 994.97 994.60 994.24 993.91 993.65 993.48 993.42 993.49 993.70 994.02 994.43 994.91 995.43 995.96 996.49 997.02 997.55 998.09 998.66 999.26 999.90 1000.60 1001.34 1002.12 1002.91 1003.70 1004.47 1005.21 1005.91 1006.57 1007.20 1007.80 1008.40 1008.99 1009.58 1010.19
998.21 997.24 996.39 995.66 995.05 994.55 994.12 993.74 993.40 993.09 992.81 992.59 992.44 992.38 992.44 992.62 992.93 993.36 993.87 994.46 995.08 995.72 996.36 997.00 997.62 998.24 998.86 999.50 1000.16 1000.84 1001.56 1002.29 1003.03 1003.76 1004.48 1005.17 1005.84 1006.48 1007.10 1007.70 1008.29 1008.88 1009.48 1010.09
997.41 996.22 995.16 994.26 993.52 992.94 992.48 992.12 991.84 991.62 991.47 991.38 991.36 991.44 991.64 991.96 992.39 992.93 993.57 994.27 995.01 995.76 996.51 997.24 997.95 998.64 999.31 999.96 1000.62 1001.29 1001.96 1002.63 1003.30 1003.98 1004.64 1005.28 1005.91 1006.52 1007.12 1007.71 1008.30 1008.88 1009.47 1010.05
996.79 995.36 994.09 993.02 992.16 991.49 991.01 990.68 990.47 990.36 990.34 990.39 990.53 990.76 991.10 991.55 992.11 992.77 993.52 994.33 995.17 996.03 996.87 997.69 998.46 999.20 999.90 1000.56 1001.20 1001.83 1002.45 1003.08 1003.69 1004.31 1004.92 1005.52 1006.12 1006.71 1007.29 1007.86 1008.43 1009.00 1009.55 1010.10
996.35 994.72 993.28 992.06 991.08 990.36 989.87 989.57 989.44 989.44 989.55 989.75 990.03 990.40 990.87 991.44 992.11 992.87 993.71 994.60 995.52 996.45 997.36 998.23 999.05 999.81 1000.52 1001.18 1001.80 1002.40 1002.99 1003.56 1004.14 1004.72 1005.30 1005.88 1006.46 1007.04 1007.60 1008.15 1008.69 1009.21 1009.72 1010.21
996.00 994.25 992.68 991.37 990.35 989.60 989.12 988.88 988.84 988.94 989.17 989.49 989.90 990.39 990.96 991.62 992.37 993.20 994.09 995.03 996.00 996.96 997.90 998.80 999.63 1000.40 1001.10 1001.75 1002.36 1002.93 1003.50 1004.05 1004.62 1005.18 1005.76 1006.34 1006.91 1007.47 1008.02 1008.54 1009.04 1009.51 1009.95 1010.36
995.58 993.79 992.21 990.90 989.88 989.18 988.76 988.60 988.65 988.86 989.19 989.62 990.12 990.70 991.34 992.05 992.84 993.70 994.61 995.56 996.53 997.50 998.44 999.33 1000.16 1000.91 1001.60 1002.24 1002.84 1003.40 1003.96 1004.52 1005.09 1005.66 1006.25 1006.83 1007.41 1007.97 1008.50 1008.99 1009.43 1009.84 1010.20 1010.52
Thickness
5630 5626 5631 5644 5650 5654 5658 5659 5662 5675 5688 5682 5678 5683 5696 5707 5710 5714 5720 5726 5731 5737 5745 5748 5748 5746 5742 5736 5731 5725 5717 5710 5703 5696 5689 5682 5676 5671 5666 5661 5655 5650 5645 5639
5617 5623 5643 5648 5649 5648 5648 5646 5652 5665 5678 5674 5671 5678 5693 5703 5708 5714 5719 5724 5729 5734 5739 5742 5743 5742 5738 5733 5728 5723 5716 5709 5702 5695 5688 5681 5673 5667 5662 5656 5651 5646 5640 5635
5618 5638 5644 5641 5640 5640 5642 5642 5645 5649 5660 5665 5660 5663 5681 5699 5709 5715 5721 5726 5731 5733 5734 5736 5737 5737 5734 5730 5725 5721 5715 5707 5700 5692 5683 5675 5667 5660 5655 5650 5645 5641 5636 5631
5617 5635 5637 5633 5635 5638 5635 5648 5646 5643 5636 5636 5646 5639 5670 5689 5699 5709 5716 5722 5727 5731 5733 5733 5733 5732 5730 5726 5721 5716 5710 5703 5696 5688 5680 5673 5666 5659 5654 5648 5641 5636 5631 5626
5617 5631 5630 5630 5639 5640 5639 5646 5640 5636 5627 5623 5634 5629 5658 5684 5689 5702 5712 5718 5723 5727 5729 5730 5730 5728 5725 5721 5715 5710 5704 5698 5691 5684 5677 5669 5663 5657 5650 5643 5636 5631 5626 5621
5620 5633 5634 5636 5642 5643 5640 5633 5628 5624 5615 5606 5630 5624 5643 5674 5689 5700 5709 5714 5718 5721 5724 5725 5724 5721 5717 5713 5708 5702 5697 5691 5686 5679 5673 5666 5659 5653 5646 5639 5632 5626 5621 5615
5602 5616 5630 5635 5627 5630 5628 5611 5593 5588 5588 5603 5635 5629 5649 5682 5697 5702 5705 5708 5711 5713 5713 5713 5712 5710 5707 5703 5699 5695 5690 5684 5679 5673 5668 5662 5656 5650 5644 5637 5630 5623 5616 5610
5588 5597 5618 5626 5626 5621 5620 5612 5595 5588 5595 5616 5629 5629 5660 5688 5697 5702 5703 5704 5704 5704 5704 5704 5703 5701 5698 5695 5691 5687 5683 5678 5673 5668 5663 5657 5651 5646 5640 5634 5627 5620 5613 5607
5593 5601 5622 5625 5629 5623 5612 5610 5618 5608 5610 5605 5622 5644 5666 5682 5685 5690 5692 5693 5693 5694 5695 5694 5693 5692 5689 5686 5683 5680 5676 5671 5667 5662 5657 5652 5647 5641 5636 5630 5623 5616 5609 5602
5595 5596 5611 5618 5616 5616 5619 5614 5603 5593 5584 5583 5608 5626 5643 5663 5670 5678 5682 5683 5685 5686 5686 5685 5684 5683 5681 5678 5674 5671 5668 5664 5660 5656 5651 5647 5642 5637 5631 5625 5618 5611 5604 5597
5584 5585 5594 5601 5601 5606 5605 5604 5601 5593 5591 5590 5595 5622 5664 5667 5672 5673 5676 5679 5680 5679 5678 5676 5676 5675 5672 5669 5666 5662 5659 5656 5652 5649 5645 5640 5636 5631 5625 5619 5613 5606 5599 5592
5570 5572 5574 5588 5605 5611 5607 5606 5602 5589 5591 5599 5599 5622 5670 5671 5672 5673 5672 5673 5674 5673 5672 5670 5668 5666 5663 5661 5658 5655 5652 5649 5646 5642 5638 5634 5629 5624 5619 5613 5607 5600 5593 5586
5555 5554 5557 5564 5574 5589 5594 5602 5605 5602 5598 5597 5595 5617 5660 5661 5663 5666 5666 5666 5666 5664 5663 5661 5660 5658 5656 5654 5651 5649 5646 5643 5640 5636 5632 5627 5623 5618 5612 5606 5600 5593 5586 5579
5548 5544 5552 5560 5572 5582 5584 5592 5598 5595 5589 5593 5604 5622 5642 5649 5652 5656 5659 5660 5658 5657 5656 5654 5652 5651 5650 5648 5645 5643 5640 5637 5634 5630 5625 5621 5616 5611 5605 5599 5593 5587 5580 5573
5531 5535 5549 5564 5578 5582 5581 5586 5591 5593 5599 5598 5613 5621 5635 5641 5645 5649 5652 5654 5653 5652 5650 5649 5647 5645 5644 5642 5640 5637 5635 5632 5628 5623 5619 5615 5609 5603 5598 5592 5586 5579 5572 5566
5515 5523 5534 5548 5566 5574 5575 5582 5587 5592 5600 5605 5611 5621 5640 5644 5645 5645 5647 5649 5648 5648 5648 5646 5644 5642 5640 5638 5635 5632 5629 5626 5622 5617 5612 5607 5601 5596 5590 5584 5578 5571 5564 5557
5494 5508 5517 5530 5551 5554 5557 5580 5587 5592 5601 5605 5608 5626 5633 5632 5636 5640 5643 5645 5645 5646 5645 5643 5641 5639 5637 5635 5632 5628 5624 5619 5614 5609 5604 5600 5594 5588 5582 5576 5570 5563 5556 5549
5484 5494 5502 5517 5529 5526 5567 5594 5594 5595 5603 5610 5616 5625 5627 5631 5635 5639 5642 5641 5641 5643 5642 5640 5637 5635 5633 5631 5627 5622 5618 5612 5607 5602 5597 5592 5587 5580 5574 5568 5562 5555 5548 5542
5494 5492 5492 5502 5513 5532 5568 5587 5593 5591 5598 5612 5615 5622 5625 5627 5625 5630 5639 5640 5639 5639 5638 5636 5634 5631 5628 5624 5621 5616 5610 5605 5600 5595 5591 5586 5580 5573 5566 5560 5554 5547 5540 5533
5499 5498 5489 5495 5506 5524 5569 5590 5597 5589 5588 5613 5615 5617 5619 5616 5608 5624 5633 5634 5633 5633 5631 5629 5627 5624 5620 5617 5614 5608 5602 5597 5593 5589 5584 5578 5572 5566 5559 5553 5546 5539 5532 5525
5485 5486 5486 5493 5503 5530 5570 5583 5584 5570 5589 5611 5613 5615 5613 5612 5619 5625 5625 5625 5624 5623 5622 5620 5617 5614 5611 5609 5605 5599 5594 5590 5587 5581 5575 5569 5563 5557 5550 5543 5537 5530 5523 5515
5478 5484 5490 5495 5503 5528 5568 5571 5571 5580 5597 5604 5608 5612 5613 5614 5616 5616 5616 5614 5613 5610 5610 5609 5605 5602 5601 5599 5596 5590 5585 5582 5576 5571 5565 5559 5553 5547 5540 5533 5526 5520 5513 5505
5481 5489 5494 5504 5523 5552 5560 5566 5575 5580 5585 5593 5598 5604 5607 5608 5608 5607 5605 5603 5602 5600 5598 5597 5594 5591 5589 5588 5585 5580 5575 5571 5566 5560 5554 5548 5542 5536 5530 5523 5516 5509 5502 5495
5479 5493 5495 5503 5523 5540 5549 5559 5566 5572 5577 5584 5590 5594 5598 5599 5600 5598 5596 5593 5592 5589 5587 5585 5582 5578 5575 5575 5573 5569 5564 5561 5555 5548 5542 5536 5530 5524 5518 5512 5506 5499 5492 5484
5465 5473 5487 5500 5520 5531 5541 5547 5555 5561 5568 5574 5579 5584 5588 5590 5590 5589 5587 5585 5582 5580 5576 5574 5572 5568 5564 5562 5559 5556 5553 5549 5542 5536 5530 5524 5519 5513 5507 5501 5495 5489 5483 5477
5466 5474 5484 5500 5517 5522 5533 5543 5549 5552 5557 5562 5567 5573 5578 5581 5582 5581 5578 5576 5572 5568 5565 5563 5560 5557 5553 5550 5546 5544 5541 5537 5531 5525 5518 5512 5507 5501 5495 5488 5481 5477 5472 5467